Time,TemperatureF,DewpointF,PressureIn,WindDirection,WindDirectionDegrees,WindSpeedMPH,WindSpeedGustMPH,Humidity,HourlyPrecipIn,Conditions,Clouds,dailyrainin,SolarRadiationWatts/m^2,SoftwareType,DateUTC
2013-04-08 00:12:00,43.0,43.0,-100.00,East,87,4.0,10.0,100,0.03,,,0.08,1.000000,,2013-04-08 05:12:00,
2013-04-08 00:22:00,43.0,43.0,-100.00,East,87,4.0,10.0,100,0.03,,,0.08,1.000000,,2013-04-08 05:22:00,
2013-04-08 00:32:00,43.0,43.0,-100.00,East,87,4.0,10.0,100,0.03,,,0.08,1.000000,,2013-04-08 05:32:00,
2013-04-08 00:42:00,43.0,43.0,-100.00,East,87,4.0,10.0,100,0.03,,,0.08,1.000000,,2013-04-08 05:42:00,
2013-04-08 01:12:00,42.0,42.0,-100.00,NNE,24,4.0,7.0,100,0.07,,,0.15,1.000000,,2013-04-08 06:12:00,
2013-04-08 01:22:00,42.0,42.0,-100.00,NNE,24,4.0,7.0,100,0.07,,,0.15,1.000000,,2013-04-08 06:22:00,
2013-04-08 01:32:00,42.0,42.0,-100.00,NNE,24,4.0,7.0,100,0.07,,,0.15,1.000000,,2013-04-08 06:32:00,
2013-04-08 01:42:00,42.0,42.0,-100.00,NNE,24,4.0,7.0,100,0.07,,,0.15,1.000000,,2013-04-08 06:42:00,
2013-04-08 02:12:00,41.0,41.0,-100.00,NNE,20,7.0,10.0,100,0.12,,,0.27,1.000000,,2013-04-08 07:12:00,
2013-04-08 02:22:00,41.0,41.0,-100.00,NNE,20,7.0,10.0,100,0.12,,,0.27,1.000000,,2013-04-08 07:22:00,
2013-04-08 02:33:00,41.0,41.0,-100.00,NNE,20,7.0,10.0,100,0.12,,,0.27,1.000000,,2013-04-08 07:33:00,
2013-04-08 02:42:00,41.0,41.0,-100.00,NNE,20,7.0,10.0,100,0.12,,,0.27,1.000000,,2013-04-08 07:42:00,
2013-04-08 03:22:00,42.0,42.0,-100.00,ENE,60,7.0,11.0,100,0.11,,,0.38,1.000000,,2013-04-08 08:22:00,
2013-04-08 03:33:00,42.0,42.0,-100.00,ENE,60,7.0,11.0,100,0.11,,,0.38,1.000000,,2013-04-08 08:33:00,
2013-04-08 03:42:00,42.0,42.0,-100.00,ENE,60,7.0,11.0,100,0.11,,,0.38,1.000000,,2013-04-08 08:42:00,
2013-04-08 04:12:00,42.0,42.0,-100.00,NE,52,5.0,10.0,100,0.19,,,0.57,1.000000,,2013-04-08 09:12:00,
2013-04-08 04:22:00,42.0,42.0,-100.00,NE,52,5.0,10.0,100,0.19,,,0.57,1.000000,,2013-04-08 09:22:00,
2013-04-08 04:33:00,42.0,42.0,-100.00,NE,52,5.0,10.0,100,0.19,,,0.57,1.000000,,2013-04-08 09:33:00,
2013-04-08 04:43:00,42.0,42.0,-100.00,NE,52,5.0,10.0,100,0.19,,,0.57,1.000000,,2013-04-08 09:43:00,
2013-04-08 05:13:00,42.0,42.0,-100.00,NE,49,5.0,10.0,100,0.11,,,0.68,1.000000,,2013-04-08 10:13:00,
2013-04-08 05:23:00,42.0,42.0,-100.00,NE,49,5.0,10.0,100,0.11,,,0.68,1.000000,,2013-04-08 10:23:00,
2013-04-08 05:33:00,42.0,42.0,-100.00,NE,49,5.0,10.0,100,0.11,,,0.68,1.000000,,2013-04-08 10:33:00,
2013-04-08 05:42:00,42.0,42.0,-100.00,NE,49,5.0,10.0,100,0.11,,,0.68,1.000000,,2013-04-08 10:42:00,
2013-04-08 06:12:00,42.0,42.0,-100.00,NNE,25,5.0,8.0,100,0.01,,,0.69,1.000000,,2013-04-08 11:12:00,
2013-04-08 06:22:00,42.0,42.0,-100.00,NNE,25,5.0,8.0,100,0.01,,,0.69,1.000000,,2013-04-08 11:22:00,
2013-04-08 06:32:00,42.0,42.0,-100.00,NNE,25,5.0,8.0,100,0.01,,,0.69,1.000000,,2013-04-08 11:32:00,
2013-04-08 06:42:00,42.0,42.0,-100.00,NNE,25,5.0,8.0,100,0.01,,,0.69,1.000000,,2013-04-08 11:42:00,
2013-04-08 07:12:00,41.0,41.0,-100.00,NE,37,4.0,7.0,100,0.00,,,0.69,1.000000,,2013-04-08 12:12:00,
2013-04-08 07:23:00,41.0,41.0,-100.00,NE,37,4.0,7.0,100,0.00,,,0.69,1.000000,,2013-04-08 12:23:00,
2013-04-08 07:33:00,41.0,41.0,-100.00,NE,37,4.0,7.0,100,0.00,,,0.69,1.000000,,2013-04-08 12:33:00,
2013-04-08 07:42:00,41.0,41.0,-100.00,NE,37,4.0,7.0,100,0.00,,,0.69,1.000000,,2013-04-08 12:42:00,
2013-04-08 08:12:00,42.0,42.0,-100.00,ENE,59,3.0,6.0,100,0.00,,,0.69,19.000000,,2013-04-08 13:12:00,
2013-04-08 08:22:00,42.0,42.0,-100.00,ENE,59,3.0,6.0,100,0.00,,,0.69,19.000000,,2013-04-08 13:22:00,
2013-04-08 08:32:00,42.0,42.0,-100.00,ENE,59,3.0,6.0,100,0.00,,,0.69,19.000000,,2013-04-08 13:32:00,
2013-04-08 08:42:00,42.0,42.0,-100.00,ENE,59,3.0,6.0,100,0.00,,,0.69,19.000000,,2013-04-08 13:42:00,
2013-04-08 09:12:00,42.0,42.0,-100.00,ENE,70,4.0,7.0,100,0.00,,,0.69,49.000000,,2013-04-08 14:12:00,
2013-04-08 09:22:00,42.0,42.0,-100.00,ENE,70,4.0,7.0,100,0.00,,,0.69,49.000000,,2013-04-08 14:22:00,
2013-04-08 09:32:00,42.0,42.0,-100.00,ENE,70,4.0,7.0,100,0.00,,,0.69,49.000000,,2013-04-08 14:32:00,
2013-04-08 09:42:00,42.0,42.0,-100.00,ENE,70,4.0,7.0,100,0.00,,,0.69,49.000000,,2013-04-08 14:42:00,
2013-04-08 10:12:00,43.0,43.0,-100.00,NE,43,5.0,8.0,100,0.00,,,0.69,118.000000,,2013-04-08 15:12:00,
2013-04-08 10:22:00,43.0,43.0,-100.00,NE,43,5.0,8.0,100,0.00,,,0.69,118.000000,,2013-04-08 15:22:00,
2013-04-08 10:33:00,43.0,43.0,-100.00,NE,43,5.0,8.0,100,0.00,,,0.69,118.000000,,2013-04-08 15:33:00,
2013-04-08 10:43:00,43.0,43.0,-100.00,NE,43,5.0,8.0,100,0.00,,,0.69,118.000000,,2013-04-08 15:43:00,
2013-04-08 11:13:00,44.0,44.0,-100.00,NE,36,5.0,7.0,100,0.00,,,0.69,118.000000,,2013-04-08 16:13:00,
2013-04-08 11:23:00,44.0,44.0,-100.00,NE,36,5.0,7.0,100,0.00,,,0.69,118.000000,,2013-04-08 16:23:00,
2013-04-08 11:32:00,44.0,44.0,-100.00,NE,36,5.0,7.0,100,0.00,,,0.69,118.000000,,2013-04-08 16:32:00,
2013-04-08 11:42:00,44.0,44.0,-100.00,NE,36,5.0,7.0,100,0.00,,,0.69,118.000000,,2013-04-08 16:42:00,
2013-04-08 12:12:00,46.0,46.0,-100.00,NE,48,5.0,10.0,100,0.00,,,0.69,270.000000,,2013-04-08 17:12:00,
2013-04-08 12:22:00,46.0,46.0,-100.00,NE,48,5.0,10.0,100,0.00,,,0.69,270.000000,,2013-04-08 17:22:00,
2013-04-08 12:32:00,46.0,46.0,-100.00,NE,48,5.0,10.0,100,0.00,,,0.69,270.000000,,2013-04-08 17:32:00,
2013-04-08 12:43:00,46.0,46.0,-100.00,NE,48,5.0,10.0,100,0.00,,,0.69,270.000000,,2013-04-08 17:43:00,
2013-04-08 13:12:00,47.0,47.0,-100.00,NE,34,5.0,9.0,100,0.00,,,0.69,222.000000,,2013-04-08 18:12:00,
2013-04-08 13:23:00,47.0,47.0,-100.00,NE,34,5.0,9.0,100,0.00,,,0.69,222.000000,,2013-04-08 18:23:00,
2013-04-08 13:32:00,47.0,47.0,-100.00,NE,34,5.0,9.0,100,0.00,,,0.69,222.000000,,2013-04-08 18:32:00,
2013-04-08 13:42:00,47.0,47.0,-100.00,NE,34,5.0,9.0,100,0.00,,,0.69,222.000000,,2013-04-08 18:42:00,
2013-04-08 14:12:00,46.0,46.0,-100.00,NNE,27,6.0,9.0,100,0.00,,,0.69,188.000000,,2013-04-08 19:12:00,
2013-04-08 14:23:00,46.0,46.0,-100.00,NNE,27,6.0,9.0,100,0.00,,,0.69,188.000000,,2013-04-08 19:23:00,
2013-04-08 14:33:00,46.0,46.0,-100.00,NNE,27,6.0,9.0,100,0.00,,,0.69,188.000000,,2013-04-08 19:33:00,
2013-04-08 14:42:00,46.0,46.0,-100.00,NNE,27,6.0,9.0,100,0.00,,,0.69,188.000000,,2013-04-08 19:42:00,
2013-04-08 15:12:00,45.0,45.0,-100.00,North,11,7.0,10.0,100,0.00,,,0.69,119.000000,,2013-04-08 20:12:00,
2013-04-08 15:23:00,45.0,45.0,-100.00,North,11,7.0,10.0,100,0.00,,,0.69,119.000000,,2013-04-08 20:23:00,
2013-04-08 15:33:00,45.0,45.0,-100.00,North,11,7.0,10.0,100,0.00,,,0.69,119.000000,,2013-04-08 20:33:00,
2013-04-08 15:43:00,45.0,45.0,-100.00,North,11,7.0,10.0,100,0.00,,,0.69,119.000000,,2013-04-08 20:43:00,
2013-04-08 16:12:00,47.0,45.0,-100.00,NE,34,6.0,11.0,93,0.00,,,-99.99,271.000000,,2013-04-08 21:12:00,
2013-04-08 16:22:00,47.0,45.0,-100.00,NE,34,6.0,11.0,93,0.00,,,-99.99,271.000000,,2013-04-08 21:22:00,
2013-04-08 16:32:00,47.0,45.0,-100.00,NE,34,6.0,11.0,93,0.00,,,-99.99,271.000000,,2013-04-08 21:32:00,
2013-04-08 16:43:00,47.0,45.0,-100.00,NE,34,6.0,11.0,93,0.00,,,-99.99,271.000000,,2013-04-08 21:43:00,
2013-04-08 17:13:00,47.0,45.0,-100.00,NNE,24,6.0,11.0,94,0.00,,,0.69,190.000000,,2013-04-08 22:13:00,
2013-04-08 17:23:00,47.0,45.0,-100.00,NNE,24,6.0,11.0,94,0.00,,,0.69,190.000000,,2013-04-08 22:23:00,
2013-04-08 17:32:00,47.0,45.0,-100.00,NNE,24,6.0,11.0,94,0.00,,,0.69,190.000000,,2013-04-08 22:32:00,
2013-04-08 17:43:00,47.0,45.0,-100.00,NNE,24,6.0,11.0,94,0.00,,,0.69,190.000000,,2013-04-08 22:43:00,
2013-04-08 18:12:00,46.0,44.0,-100.00,North,9,8.0,13.0,91,0.00,,,0.69,108.000000,,2013-04-08 23:12:00,
2013-04-08 18:22:00,46.0,44.0,-100.00,North,9,8.0,13.0,91,0.00,,,0.69,108.000000,,2013-04-08 23:22:00,
2013-04-08 18:32:00,46.0,44.0,-100.00,North,9,8.0,13.0,91,0.00,,,0.69,108.000000,,2013-04-08 23:32:00,
2013-04-08 18:42:00,46.0,44.0,-100.00,North,9,8.0,13.0,91,0.00,,,0.69,108.000000,,2013-04-08 23:42:00,
2013-04-08 19:12:00,44.0,43.0,-100.00,North,6,7.0,14.0,95,0.00,,,0.69,51.000000,,2013-04-09 00:12:00,
2013-04-08 19:22:00,44.0,43.0,-100.00,North,6,7.0,14.0,95,0.00,,,0.69,51.000000,,2013-04-09 00:22:00,
2013-04-08 19:32:00,44.0,43.0,-100.00,North,6,7.0,14.0,95,0.00,,,0.69,51.000000,,2013-04-09 00:32:00,
2013-04-08 19:42:00,44.0,43.0,-100.00,North,6,7.0,14.0,95,0.00,,,0.69,51.000000,,2013-04-09 00:42:00,
2013-04-08 20:12:00,43.0,43.0,-100.00,North,10,8.0,14.0,100,0.00,,,0.69,10.000000,,2013-04-09 01:12:00,
2013-04-08 20:22:00,43.0,43.0,-100.00,North,10,8.0,14.0,100,0.00,,,0.69,10.000000,,2013-04-09 01:22:00,
2013-04-08 20:33:00,43.0,43.0,-100.00,North,10,8.0,14.0,100,0.00,,,0.69,10.000000,,2013-04-09 01:33:00,
2013-04-08 20:42:00,43.0,43.0,-100.00,North,10,8.0,14.0,100,0.00,,,0.69,10.000000,,2013-04-09 01:42:00,
2013-04-08 21:13:00,41.0,41.0,-100.00,NNE,19,10.0,17.0,100,0.00,,,0.68,1.000000,,2013-04-09 02:13:00,
2013-04-08 21:22:00,41.0,41.0,-100.00,NNE,19,10.0,17.0,100,0.00,,,0.68,1.000000,,2013-04-09 02:22:00,
2013-04-08 21:32:00,41.0,41.0,-100.00,NNE,19,10.0,17.0,100,0.00,,,0.68,1.000000,,2013-04-09 02:32:00,
2013-04-08 21:43:00,41.0,41.0,-100.00,NNE,19,10.0,17.0,100,0.00,,,0.68,1.000000,,2013-04-09 02:43:00,
2013-04-08 22:12:00,41.0,41.0,-100.00,NE,42,7.0,16.0,100,0.00,,,0.67,1.000000,,2013-04-09 03:12:00,
2013-04-08 22:22:00,41.0,41.0,-100.00,NE,42,7.0,16.0,100,0.00,,,0.67,1.000000,,2013-04-09 03:22:00,
2013-04-08 22:33:00,41.0,41.0,-100.00,NE,42,7.0,16.0,100,0.00,,,0.67,1.000000,,2013-04-09 03:33:00,
2013-04-08 22:43:00,41.0,41.0,-100.00,NE,42,7.0,16.0,100,0.00,,,0.67,1.000000,,2013-04-09 03:43:00,
2013-04-08 23:13:00,41.0,41.0,-100.00,NE,37,8.0,13.0,100,0.00,,,0.64,1.000000,,2013-04-09 04:13:00,
2013-04-08 23:23:00,41.0,41.0,-100.00,NE,37,8.0,13.0,100,0.00,,,0.64,1.000000,,2013-04-09 04:23:00,
2013-04-08 23:32:00,41.0,41.0,-100.00,NE,37,8.0,13.0,100,0.00,,,0.64,1.000000,,2013-04-09 04:32:00,
2013-04-08 23:42:00,41.0,41.0,-100.00,NE,37,8.0,13.0,100,0.00,,,0.64,1.000000,,2013-04-09 04:42:00,